User: anonymous   Login
Location: Caltech
(34.1382°N, 118.1253°W)
Time: 17:28:58
(UTC-07:00)
Language:

Cosmos 1484 Rocket - Orbit

View from above orbital plane
View from above orbital plane
View from above satellite
View from above satellite

Ground track
Ground track

The orbit data is extracted from the following two-line orbital elements,

1 14208U 83075B   14304.15518753  .00003225  00000-0  21231-3 0  1632
2 14208 097.4123 336.1463 0041763 194.2645 165.7408 15.07516735702685
Epoch (UTC): 31 October 2014 03:43:28
Eccentricity: 0.0041763
inclination: 97.4123°
perigee height: 515 km
apogee height: 573 km
right ascension of ascending node: 336.1463°
argument of perigee: 194.2645°
revolutions per day: 15.07516735
mean anomaly at epoch: 165.7408°
orbit number at epoch: 70268

The dashed part of the orbit path shows where the satellite is in the earth's shadow,  

DLR